sat.trackr.live / text

‹ back to catalog

STARLINK-32642

NORAD 62211 · 2024-229V

PAYLOAD ACTIVE UNKNOWN

§ Identity

Operator
Country
US
Launch date
2024-12-04
Launch site
AFETR
Launch vehicle
Mass (kg)
RCS (m²)

Purposes: comms

External: N2YO · Heavens-Above · Gunter

§ Orbital elements

Epoch: 2026-05-25T04:32:51.378720Z

Period
94.27 min
Inclination
42.9999°
Eccentricity
0.0001018
Mean motion
15.27588964 rev/d
Perigee alt
482.3 km
Apogee alt
483.7 km
Semi-major
6,861.2 km
B*
4.5107e-4
RAAN
198.4606°
Arg perigee
277.0885°
Mean anomaly
82.9851°
Rev number
8,226

§ Raw data

STARLINK-326421 62211U 24229V   26145.18948355  .00012174  00000+0  45107-3 0  99962 62211  42.9999 198.4606 0001018 277.0885  82.9851 15.27588964 82263

JSON: /api/v1/satellites/62211 · /tle

For live sub-satellite position, see the globe view (requires WebGL).

§ Visibility from observer

Set your observer location to see the next 7 days of passes ≥ 10°. The values pass through the URL so the page stays shareable.

No JS? Fill the form by hand. The geolocation button needs JavaScript.